World > North America > United States > Georgia

Hazlehurst, Georgia Regional Weather

Lat: 31.87N, Lon: 82.6W
Wx Zone: GAZ133
Feedback

Hazlehurst, GA Regional Weather

Expires:202006030800;;672927
ASUS42 KFFC 030710
RWRGA 
WEATHER ROUNDUP FOR GEORGIA
NATIONAL WEATHER SERVICE PEACHTREE CITY GA
300 AM EDT WED JUN 03 2020

NOTE: "FAIR" INDICATES FEW OR NO CLOUDS BELOW 12,000 FEET WITH NO
SIGNIFICANT WEATHER AND/OR OBSTRUCTIONS TO VISIBILITY. 

* = USE WITH CAUTION. THE STATIONS MARKED WITH AN ASTERISK MAY NOT
REPORT WEATHER SUCH AS PRECIPITATION, FOG, OR THUNDER AND ARE NOT 
QUALITY CONTROLLED BY NWS.

THE REMARK "TC" DENOTES TEMPERATURE READING IN DEGREES CELSIUS.


GAZ099>101-110>166-030800-
SOUTH GEORGIA
  
CITY           SKY/WX    TMP DP  RH WIND       PRES   REMARKS
SAVANNAH       MOCLDY    69  64  84 SW3       30.11F                  
VALDOSTA       MOCLDY    70  63  78 SE3       30.10F                  
ALMA           PTCLDY    64  61  90 CALM      30.11F                  
ST SIMONS      MOCLDY    75  61  61 S3        30.10F                  
FT STEWART     MOCLDY    65  62  91 CALM      30.09F                  
ALBANY         PTCLDY    72  64  76 SE3       30.11F                  
HUNTER AFB     MOCLDY    70  63  78 CALM      30.08F                  
MOODY AFB      MOCLDY    68  63  83 CALM      30.09F                  
BRUNSWICK      MOCLDY    65  63  94 CALM      30.11F                  

  
CITY           SKY/WX    TMP DP  RH WIND       PRES   REMARKS
BAINBRIDGE*    CLOUDY    72  67  83 SE3       30.09S                  
MOULTRIE*      PTCLDY    70  63  78 CALM      30.11S                  
VIDALIA*       MOCLDY    68  61  77 SW3       30.11F                  
WAYCROSS*      PTCLDY    68  63  84 CALM      30.11F                  
DOUGLAS*       PTCLDY    67  62  83 CALM      30.12F                  
$$
  

SKY/WX - Weather  TMP - Temperature  DP - Dew Point  RH - Relative Humidity
WIND - Wind Direction/Speed PRES - Barometric Pressure VSB - Visibility
WCI - Wind Chill Index E13G22 Wind - East Wind 13 mph/Gusts of 22 mph
Hazlehurst Weather Map
UTC Time: 6/3/2020, 07:34
Your Time: